{"data":{"norad_id":55045,"intl_designator":"2023-001AN","name":"CONTINUUM-1","alt_names":[],"object_type":"PAYLOAD","status":"ACTIVE","operator":null,"country":"AUS","launch_date":"2023-01-03","launch_site_code":"AFETR","launch_vehicle":null,"mission":null,"orbit_class":"UNKNOWN","rcs_meters":null,"size_class":null,"mass_kg":null,"dimensions":null,"purposes":[],"wikipedia_slug":null,"has_3d_model":false,"image_url":null,"decayed_at":null,"tle_current":{"epoch":"2026-09-21T22:03:30.044736Z","epoch_age_seconds":42755,"freshness":"FRESH","line1":"1 55045U 23001AN  26264.91909774  .00008415  00000+0  26301-3 0  9993","line2":"2 55045  97.3269 327.0066 0009911 102.3906 257.8446 15.33365003207062","mean_motion":15.33365003,"eccentricity":0.0009911,"inclination_deg":97.3269,"raan_deg":327.0066,"arg_perigee_deg":102.3906,"mean_anomaly_deg":257.8446,"bstar":0.00026301,"rev_number":20706,"period_min":93.911103826073,"perigee_km":458.99819228762,"apogee_km":472.5642069429,"semimajor_km":6843.9181996153,"source":"CELESTRAK","updated_at":"2026-09-22T09:00:25.266399Z"}}}